User: anonymous
Location: Unspecified
(0.0000°N, 0.0000°E)
Time: 00:01:17
(UTC+00:00)
Language:

Optus B3 - Orbit

View from above orbital plane
View from above orbital plane
View from above satellite
View from above satellite

Ground track
Ground track

The orbit data is extracted from the following two-line orbital elements,

1 23227U 94055A   14261.63420660 -.00000097  00000-0  00000+0 0  5554
2 23227 005.7006 058.4076 0006064 128.8832 202.6899 01.00272047 73429
Epoch (UTC): 18 September 2014 15:13:15
Eccentricity: 0.0006064
inclination: 5.7006°
perigee height: 35760 km
apogee height: 35812 km
right ascension of ascending node: 58.4076°
argument of perigee: 128.8832°
revolutions per day: 1.00272047
mean anomaly at epoch: 202.6899°
orbit number at epoch: 7342

The dashed part of the orbit path shows where the satellite is in the earth's shadow,  

DLR